When you browse on this site, cookies collect data to enhance your experience and personalize the content and advertising you see.
Visit our Privacy Policy to learn more. By continuing to use the site, you agree to this use of cookies and data.

Stündliche Wetter Pleskachi

Heute, 13 Juli, Montag

Zeit Temperatur Niederschläge Wind Luftdruck Luftfeuchtigkeit
00:00 +16°C° 1.7 mm 7 m/S 750 mmHg 94%
01:00 +15°C° 1.7 mm 7 m/S 750 mmHg 95%
02:00 +15°C° 0 mm 6 m/S 751 mmHg 94%
03:00 +14°C° 1.5 mm 7 m/S 751 mmHg 94%
04:00 +14°C° 1.5 mm 7 m/S 750 mmHg 94%
05:00 +14°C° 1.5 mm 7 m/S 750 mmHg 94%
06:00 +14°C° 0.1 mm 7 m/S 750 mmHg 93%
07:00 +14°C° 0.1 mm 7 m/S 750 mmHg 92%
08:00 +14°C° 0.1 mm 7 m/S 750 mmHg 91%
09:00 +14°C° 0 mm 7 m/S 750 mmHg 90%
10:00 +14°C° 0 mm 7 m/S 750 mmHg 88%
11:00 +13°C° 0 mm 8 m/S 750 mmHg 87%
12:00 +15°C° 0 mm 7 m/S 750 mmHg 84%
13:00 +15°C° 0 mm 7 m/S 751 mmHg 82%
14:00 +15°C° 0 mm 7 m/S 751 mmHg 79%
15:00 +16°C° 0 mm 7 m/S 750 mmHg 78%
16:00 +16°C° 0 mm 7 m/S 750 mmHg 77%
17:00 +16°C° 0 mm 7 m/S 750 mmHg 76%
18:00 +15°C° 0 mm 6 m/S 750 mmHg 77%
19:00 +15°C° 0 mm 5 m/S 750 mmHg 78%
20:00 +14°C° 0 mm 5 m/S 750 mmHg 79%
21:00 +14°C° 0 mm 5 m/S 750 mmHg 81%
22:00 +14°C° 0 mm 5 m/S 750 mmHg 83%
23:00 +13°C° 0 mm 5 m/S 750 mmHg 84%

Morgen, 14 Juli, Dienstag

Zeit Temperatur Niederschläge Wind Luftdruck Luftfeuchtigkeit
00:00 +13°C° 0 mm 5 m/S 749 mmHg 85%
01:00 +13°C° 0 mm 6 m/S 749 mmHg 85%
02:00 +13°C° 0 mm 6 m/S 749 mmHg 85%
03:00 +13°C° 0 mm 6 m/S 749 mmHg 85%
04:00 +13°C° 0 mm 6 m/S 749 mmHg 84%
05:00 +13°C° 0 mm 6 m/S 749 mmHg 84%
06:00 +14°C° 0.1 mm 6 m/S 749 mmHg 83%
07:00 +14°C° 0.1 mm 6 m/S 749 mmHg 83%
08:00 +14°C° 0.1 mm 7 m/S 749 mmHg 83%
09:00 +14°C° 0.1 mm 7 m/S 749 mmHg 82%
10:00 +15°C° 0.1 mm 7 m/S 749 mmHg 82%
11:00 +15°C° 0.1 mm 7 m/S 749 mmHg 81%
12:00 +15°C° 1.3 mm 7 m/S 749 mmHg 82%
13:00 +15°C° 1.3 mm 7 m/S 749 mmHg 82%
14:00 +15°C° 1.3 mm 7 m/S 749 mmHg 83%
15:00 +15°C° 0.8 mm 6 m/S 749 mmHg 84%
16:00 +15°C° 0.8 mm 6 m/S 749 mmHg 85%
17:00 +15°C° 0.8 mm 5 m/S 749 mmHg 86%
18:00 +14°C° 0.7 mm 5 m/S 749 mmHg 87%
19:00 +14°C° 0.7 mm 4 m/S 749 mmHg 89%
20:00 +14°C° 0.7 mm 4 m/S 749 mmHg 90%
21:00 +14°C° 0.1 mm 4 m/S 749 mmHg 90%
22:00 +14°C° 0.1 mm 3 m/S 750 mmHg 90%
23:00 +14°C° 0.1 mm 3 m/S 750 mmHg 90%

übermorgen, 15 Juli, Mittwoch

Zeit Temperatur Niederschläge Wind Luftdruck Luftfeuchtigkeit
00:00 +13°C° 0 mm 3 m/S 750 mmHg 90%
01:00 +13°C° 0 mm 4 m/S 750 mmHg 89%
02:00 +12°C° 0 mm 4 m/S 751 mmHg 89%
03:00 +12°C° 0 mm 4 m/S 751 mmHg 90%
04:00 +12°C° 0 mm 4 m/S 751 mmHg 91%
05:00 +12°C° 0 mm 4 m/S 751 mmHg 92%
06:00 +14°C° 0 mm 4 m/S 751 mmHg 87%
07:00 +17°C° 0 mm 4 m/S 751 mmHg 83%
08:00 +17°C° 0 mm 5 m/S 752 mmHg 78%
09:00 +19°C° 0 mm 4 m/S 752 mmHg 71%
10:00 +21°C° 0 mm 4 m/S 752 mmHg 64%
11:00 +22°C° 0 mm 4 m/S 752 mmHg 57%
12:00 +22°C° 0 mm 4 m/S 752 mmHg 55%
13:00 +23°C° 0 mm 4 m/S 752 mmHg 54%
14:00 +23°C° 0 mm 4 m/S 752 mmHg 52%
15:00 +24°C° 0 mm 3 m/S 752 mmHg 55%
16:00 +24°C° 0 mm 3 m/S 752 mmHg 58%
17:00 +24°C° 0 mm 2 m/S 752 mmHg 61%
18:00 +21°C° 0 mm 2 m/S 752 mmHg 64%
19:00 +19°C° 0 mm 2 m/S 752 mmHg 68%
20:00 +19°C° 0 mm 1 m/S 752 mmHg 71%
21:00 +18°C° 0 mm 1 m/S 752 mmHg 72%
22:00 +18°C° 0 mm 1 m/S 752 mmHg 72%
23:00 +16°C° 0 mm 2 m/S 752 mmHg 73%

16 Juli, Donnerstag

Zeit Temperatur Niederschläge Wind Luftdruck Luftfeuchtigkeit
00:00 +16°C° 0 mm 2 m/S 752 mmHg 75%
01:00 +15°C° 0 mm 2 m/S 752 mmHg 77%
02:00 +15°C° 0 mm 2 m/S 752 mmHg 79%
03:00 +15°C° 0 mm 2 m/S 752 mmHg 81%
04:00 +15°C° 0 mm 2 m/S 752 mmHg 82%
05:00 +15°C° 0 mm 2 m/S 752 mmHg 84%
06:00 +17°C° 0 mm 2 m/S 752 mmHg 80%
07:00 +19°C° 0 mm 2 m/S 752 mmHg 75%
08:00 +20°C° 0 mm 2 m/S 752 mmHg 70%
09:00 +23°C° 0.1 mm 2 m/S 752 mmHg 66%
10:00 +24°C° 0.1 mm 2 m/S 752 mmHg 61%
11:00 +25°C° 0.1 mm 1 m/S 752 mmHg 57%
12:00 +25°C° 0.3 mm 1 m/S 752 mmHg 57%
13:00 +25°C° 0.3 mm 1 m/S 752 mmHg 57%
14:00 +25°C° 0.3 mm 1 m/S 751 mmHg 57%
15:00 +25°C° 0.1 mm 1 m/S 751 mmHg 57%
16:00 +25°C° 0.1 mm 1 m/S 751 mmHg 58%
17:00 +23°C° 0.1 mm 0 m/S 751 mmHg 59%
18:00 +24°C° 0 mm 1 m/S 751 mmHg 63%
19:00 +23°C° 0 mm 1 m/S 751 mmHg 67%
20:00 +21°C° 0 mm 1 m/S 751 mmHg 71%
21:00 +20°C° 0 mm 1 m/S 751 mmHg 73%
22:00 +20°C° 0 mm 1 m/S 751 mmHg 75%
23:00 +19°C° 0 mm 1 m/S 751 mmHg 77%

17 Juli, Freitag

Zeit Temperatur Niederschläge Wind Luftdruck Luftfeuchtigkeit
00:00 +19°C° 0 mm 1 m/S 751 mmHg 79%
01:00 +18°C° 0 mm 1 m/S 751 mmHg 81%
02:00 +18°C° 0 mm 1 m/S 751 mmHg 83%
03:00 +18°C° 0 mm 1 m/S 751 mmHg 83%
04:00 +18°C° 0 mm 1 m/S 751 mmHg 83%
05:00 +18°C° 0 mm 1 m/S 751 mmHg 83%
06:00 +19°C° 0 mm 1 m/S 751 mmHg 78%
07:00 +21°C° 0 mm 1 m/S 751 mmHg 73%
08:00 +23°C° 0 mm 1 m/S 752 mmHg 67%
09:00 +24°C° 0.1 mm 1 m/S 752 mmHg 63%
10:00 +25°C° 0.1 mm 1 m/S 752 mmHg 58%
11:00 +26°C° 0.1 mm 1 m/S 752 mmHg 54%
12:00 +27°C° 0.1 mm 1 m/S 752 mmHg 52%
13:00 +28°C° 0.1 mm 1 m/S 752 mmHg 50%
14:00 +28°C° 0.1 mm 1 m/S 752 mmHg 47%
15:00 +28°C° 0.1 mm 1 m/S 751 mmHg 51%
16:00 +27°C° 0.1 mm 1 m/S 751 mmHg 54%
17:00 +27°C° 0.1 mm 1 m/S 751 mmHg 57%
18:00 +25°C° 0.2 mm 1 m/S 751 mmHg 62%
19:00 +24°C° 0.2 mm 1 m/S 752 mmHg 68%
20:00 +22°C° 0.2 mm 1 m/S 752 mmHg 73%
21:00 +21°C° 0.2 mm 1 m/S 752 mmHg 75%
22:00 +21°C° 0.2 mm 1 m/S 752 mmHg 77%
23:00 +20°C° 0.2 mm 1 m/S 752 mmHg 79%

18 Juli, Samstag

Zeit Temperatur Niederschläge Wind Luftdruck Luftfeuchtigkeit
00:00 +20°C° 0.1 mm 1 m/S 752 mmHg 80%
01:00 +20°C° 0.1 mm 1 m/S 752 mmHg 81%
02:00 +18°C° 0.1 mm 2 m/S 752 mmHg 82%
03:00 +19°C° 0 mm 1 m/S 752 mmHg 83%
04:00 +19°C° 0 mm 1 m/S 752 mmHg 83%
05:00 +19°C° 0 mm 1 m/S 752 mmHg 84%
06:00 +21°C° 0 mm 1 m/S 753 mmHg 80%
07:00 +22°C° 0 mm 1 m/S 753 mmHg 75%
08:00 +24°C° 0 mm 2 m/S 753 mmHg 71%
09:00 +25°C° 0.3 mm 2 m/S 753 mmHg 66%
10:00 +26°C° 0.3 mm 1 m/S 753 mmHg 62%
11:00 +27°C° 0.3 mm 1 m/S 753 mmHg 57%
12:00 +27°C° 0.6 mm 1 m/S 753 mmHg 56%
13:00 +28°C° 0.6 mm 1 m/S 752 mmHg 55%
14:00 +28°C° 0.6 mm 1 m/S 752 mmHg 54%
15:00 +28°C° 0.1 mm 1 m/S 752 mmHg 56%
16:00 +27°C° 0.1 mm 1 m/S 752 mmHg 58%
17:00 +27°C° 0.1 mm 1 m/S 752 mmHg 60%
18:00 +25°C° 0.3 mm 1 m/S 752 mmHg 66%
19:00 +24°C° 0.3 mm 1 m/S 752 mmHg 71%
20:00 +22°C° 0.3 mm 1 m/S 752 mmHg 76%
21:00 +20°C° 0.3 mm 2 m/S 752 mmHg 81%
22:00 +19°C° 0.3 mm 3 m/S 752 mmHg 85%
23:00 +18°C° 0.3 mm 4 m/S 752 mmHg 89%
Mehr zeigen